TimePST,TemperatureF,Dew PointF,Humidity,Sea Level PressureIn,VisibilityMPH,Wind Direction,Wind SpeedMPH,Gust SpeedMPH,PrecipitationIn,Events,Conditions,WindDirDegrees,DateUTC
12:52 AM,34.0,19.9,56,29.94,10.0,ENE,4.6,-,N/A,,Mostly Cloudy,70,2012-12-30 08:52:00
1:52 AM,35.1,21.0,57,29.93,10.0,Calm,Calm,-,N/A,,Overcast,0,2012-12-30 09:52:00
2:52 AM,35.1,21.0,57,29.92,10.0,NE,3.5,-,N/A,,Overcast,50,2012-12-30 10:52:00
3:52 AM,36.0,21.0,55,29.90,10.0,Calm,Calm,-,N/A,,Overcast,0,2012-12-30 11:52:00
4:52 AM,36.0,19.9,52,29.89,10.0,Calm,Calm,-,N/A,,Overcast,0,2012-12-30 12:52:00
6:52 AM,35.1,21.9,59,29.91,10.0,Calm,Calm,-,N/A,,Overcast,0,2012-12-30 14:52:00
7:52 AM,36.0,21.0,55,29.91,10.0,East,3.5,-,N/A,,Overcast,80,2012-12-30 15:52:00
8:52 AM,37.0,23.0,57,29.92,10.0,NNW,3.5,-,N/A,,Mostly Cloudy,330,2012-12-30 16:52:00
9:52 AM,44.1,19.9,38,29.91,10.0,NNE,12.7,-,N/A,,Overcast,20,2012-12-30 17:52:00
10:52 AM,43.0,19.9,40,29.90,10.0,NE,8.1,-,N/A,,Overcast,50,2012-12-30 18:52:00
11:52 AM,46.0,19.9,35,29.87,10.0,NNE,9.2,-,N/A,,Overcast,30,2012-12-30 19:52:00
12:52 PM,46.0,19.9,35,29.85,10.0,Calm,Calm,-,N/A,,Overcast,0,2012-12-30 20:52:00
1:52 PM,46.0,19.9,35,29.84,10.0,ENE,4.6,-,N/A,,Overcast,60,2012-12-30 21:52:00
2:52 PM,45.0,19.9,37,29.84,10.0,NNE,4.6,-,N/A,,Overcast,20,2012-12-30 22:52:00
3:52 PM,45.0,17.1,33,29.85,10.0,NE,8.1,-,N/A,,Overcast,50,2012-12-30 23:52:00
4:52 PM,39.0,27.0,62,29.87,10.0,ESE,13.8,-,N/A,,Mostly Cloudy,120,2012-12-31 00:52:00
5:52 PM,39.0,18.0,43,29.89,10.0,NNE,10.4,-,N/A,,Clear,30,2012-12-31 01:52:00
6:52 PM,37.0,18.0,46,29.92,10.0,NE,10.4,-,N/A,,Clear,50,2012-12-31 02:52:00
7:52 PM,36.0,18.0,48,29.95,10.0,NE,9.2,-,N/A,,Clear,50,2012-12-31 03:52:00
8:52 PM,37.0,17.1,44,29.96,10.0,NNE,16.1,-,N/A,,Overcast,30,2012-12-31 04:52:00
9:52 PM,36.0,17.1,46,29.97,10.0,NNE,15.0,-,N/A,,Partly Cloudy,30,2012-12-31 05:52:00
10:52 PM,35.1,16.0,46,30.00,10.0,NNE,15.0,-,N/A,,Clear,30,2012-12-31 06:52:00
11:52 PM,34.0,15.1,46,30.00,10.0,NNE,12.7,-,N/A,,Clear,20,2012-12-31 07:52:00